[[{"header":{"parameterUnit":"m.s-1","parameterCategory":1,"la1":30.2991,"la2":30.254,"lo1":-89.0895,"lo2":-89.0444,"dy":0.0017,"dx":0.0017,"nx":28,"ny":28,"refTime":"2025-08-27T03:00:00:Z","depth":0,"parameterNumber":2,"parameterNumberName":"U-component_of_WINDS"},"data":[0,0,0,0,0,0,0,0,0,0,0,0,0,0,0,0,0,0,0,0,0,0,0,0,0,0,0,0,0,0,0,0,0,0,0,0,0,0,0,0,0,0,0,0,0,0,0,0,0,0,0,0,0,0,0,0,0,0,0.7224,0.7225,0,0.7255,0.7255,0.7256,0.7288,0.7288,0.7288,0.7289,0.7318,0.7319,0.7319,0,0,0,0,0,0,0,0,0,0,0,0,0,0.7192,0.7193,0.7224,0.7225,0.7225,0.7255,0.7255,0.7256,0.7287,0.7288,0.7289,0.7289,0.7318,0.7319,0.7319,0,0,0,0,0,0,0,0,0,0,0,0,0,0.7213,0.7193,0.7224,0.7245,0.7247,0.7255,0.7255,0.7256,0.7287,0.7288,0.7289,0.7289,0.7318,0.7319,0.7319,0.7309,0,0,0.7321,0.7321,0,0,0,0,0,0,0,0,0.7212,0.7214,0.7241,0.7243,0.7246,0.7268,0.7255,0.7274,0.7287,0.7272,0.7289,0.729,0.7301,0.7303,0.7307,0.7311,0.7312,0.7321,0.7321,0.7322,0.7322,0,0,0,0,0,0,0,0.721,0.7213,0.7236,0.7242,0.7244,0.7252,0.7256,0.7259,0.7282,0.7273,0.7276,0.7279,0.7302,0.7307,0.7308,0.7312,0.7321,0.7322,0.7322,0.7322,0.731,0.7309,0,0,0,0,0,0,0.7206,0.7212,0.7235,0.7237,0.723,0.7252,0.7256,0.726,0.7282,0.7286,0.7278,0.728,0.7305,0.7308,0.7309,0.7299,0.7322,0.7322,0.7322,0.7311,0.731,0.7309,0,0,0,0,0,0,0.7205,0.7208,0.7234,0.7225,0.7229,0.7252,0.7256,0.726,0.7265,0.7286,0.729,0.7278,0.7306,0.7309,0.7309,0.7301,0.7322,0.7323,0.7311,0.731,0.7309,0.7279,0,0,0,0,0,0,0.7204,0.7207,0.7204,0.7225,0.7229,0.7234,0.7256,0.7261,0.7266,0.7269,0.7287,0.7291,0.7307,0.7308,0.731,0.7302,0.7323,0.7312,0.7311,0.731,0.7281,0.7277,0.7274,0,0,0,0,0,0.7203,0.7193,0.7203,0.7206,0.7226,0.7233,0.7236,0.7254,0.7265,0.7262,0.7276,0.7291,0.7302,0.7308,0.731,0.7302,0.7313,0.7311,0.731,0.7282,0.7278,0.7274,0,0,0,0,0,0,0.717,0.7197,0.7208,0.7205,0.7217,0.7239,0.7235,0.7249,0.7257,0.7259,0.7282,0.7286,0.7284,0.7293,0.73,0.7294,0.7309,0.7308,0.7288,0.7284,0.728,0.7277,0.7324,0,0,0,0,0,0.7162,0.7167,0.719,0.7185,0.7191,0.7212,0.7216,0.7229,0.7242,0.7247,0.7261,0.7272,0.7278,0.7282,0.7288,0.7283,0.7287,0.7278,0.7275,0.7272,0.727,0.7268,0.7264,0.7304,0.7304,0.7304,0,0,0.7147,0.7162,0.7163,0.7179,0.7189,0.7193,0.7215,0.7218,0.7221,0.7247,0.7248,0.7259,0.7274,0.7271,0.7271,0.7279,0.7261,0.727,0.7267,0.7267,0.7266,0.7262,0.7259,0.7303,0.7303,0.7304,0,0,0.712,0.7132,0.7129,0.714,0.7156,0.7171,0.717,0.719,0.7198,0.7201,0.722,0.7224,0.7234,0.7244,0.725,0.7228,0.7242,0.723,0.7211,0.7209,0.7206,0.7203,0.7195,0.7191,0.7228,0.7228,0.7228,0,0.7098,0.7104,0.7126,0.7128,0.7134,0.7159,0.7157,0.7166,0.7183,0.7187,0.7196,0.721,0.7221,0.7222,0.7216,0.7221,0.722,0.7227,0.7204,0.7202,0.72,0.7192,0.7189,0.7227,0.7227,0.7227,0.7227,0,0.7077,0.7081,0.7077,0.7094,0.71,0.71,0.7121,0.7125,0.7139,0.7152,0.7154,0.7169,0.7179,0.7181,0.7194,0.7183,0.7187,0.72,0.7216,0.7194,0.7187,0.7184,0.7224,0.7225,0.7225,0.7226,0,0,0.7028,0.7058,0.7056,0.7064,0.7085,0.7089,0.709,0.7101,0.7103,0.7115,0.7116,0.7125,0.7137,0.7144,0.7159,0.7157,0.7138,0.717,0.717,0.7163,0.7127,0.7117,0.7113,0.7148,0.7148,0.7148,0.7126,0,0.7004,0.7007,0.7028,0.7025,0.703,0.7054,0.7055,0.7068,0.7081,0.7086,0.7101,0.7106,0.7122,0.7127,0.7126,0.714,0.7131,0.7143,0.7149,0.7149,0.7143,0.7109,0.7098,0.7077,0.7123,0.7123,0.7123,0,0.6976,0.6986,0.6985,0.7006,0.7008,0.7009,0.7021,0.7026,0.7041,0.7051,0.7059,0.7076,0.7078,0.7094,0.7098,0.7105,0.7109,0.7117,0.7116,0.7117,0.7133,0.7108,0.707,0.7067,0.7119,0.7119,0.7119,0,0.6939,0.6954,0.6954,0.6961,0.6986,0.6986,0.6996,0.7012,0.7017,0.7028,0.7032,0.7043,0.7048,0.7056,0.7075,0.7085,0.7076,0.7094,0.7084,0.7083,0.708,0.7079,0.7041,0.7084,0.7084,0.7084,0.7084,0,0.691,0.6907,0.6939,0.6939,0.6937,0.6961,0.6959,0.6971,0.6986,0.6989,0.7011,0.7013,0.7039,0.7044,0.7059,0.706,0.7062,0.707,0.7074,0.7067,0.7066,0.7069,0.7071,0.7083,0.7083,0.7084,0.7084,0,0.6868,0.6889,0.6892,0.6916,0.6922,0.6919,0.694,0.6941,0.6956,0.696,0.6962,0.6986,0.6993,0.7014,0.7026,0.7036,0.7032,0.704,0.7027,0.7029,0.7018,0.7019,0.698,0.6976,0.7022,0.7021,0.7021,0,0.6847,0.6846,0.687,0.6874,0.6884,0.689,0.6897,0.692,0.6926,0.6944,0.6943,0.6952,0.6961,0.6972,0.699,0.7,0.7007,0.6993,0.7009,0.7003,0.7006,0.7006,0.7005,0.6989,0.6989,0.6988,0.6988,0,0.6807,0.6818,0.6826,0.6839,0.6846,0.6856,0.6868,0.687,0.6897,0.6902,0.691,0.6917,0.6931,0.694,0.6953,0.6964,0.698,0.6983,0.6981,0.6974,0.6966,0.6969,0.7017,0.6983,0.6984,0.6984,0.6984,0.6984,0.6775,0.6775,0.6793,0.6801,0.6813,0.6824,0.6827,0.6843,0.685,0.6863,0.6877,0.6884,0.69,0.692,0.6929,0.6935,0.6943,0.6941,0.694,0.6938,0.6935,0.6966,0.6937,0.6937,0.6938,0.6938,0.6938,0,0.6735,0.6748,0.6756,0.6773,0.678,0.6796,0.681,0.6815,0.6821,0.6835,0.6843,0.6853,0.6863,0.6882,0.6893,0.6894,0.6902,0.6896,0.6895,0.6897,0.6927,0.6927,0.6889,0.6889,0.6889,0.6889,0.6889,0.6889,0.6715,0.6717,0.673,0.6738,0.6751,0.6759,0.6765,0.6776,0.6787,0.6797,0.6805,0.6818,0.6834,0.6847,0.6856,0.6862,0.6864,0.6856,0.6864,0.6891,0.6895,0.69,0.69,0.6857,0.6857,0.6833,0.6833,0.6833]},{"header":{"parameterUnit":"m.s-1","parameterCategory":1,"la1":30.2991,"la2":30.254,"lo1":-89.0895,"lo2":-89.0444,"dy":0.0017,"dx":0.0017,"nx":28,"ny":28,"refTime":"2025-08-27T03:00:00:Z","depth":0,"parameterNumber":3,"parameterNumberName":"V-component_of_WINDS"},"data":[0,0,0,0,0,0,0,0,0,0,0,0,0,0,0,0,0,0,0,0,0,0,0,0,0,0,0,0,0,0,0,0,0,0,0,0,0,0,0,0,0,0,0,0,0,0,0,0,0,0,0,0,0,0,0,0,0,0,-0.8129,-0.813,0,-0.8258,-0.8259,-0.8261,-0.8322,-0.8322,-0.8322,-0.8322,-0.8457,-0.846,-0.8464,0,0,0,0,0,0,0,0,0,0,0,0,0,-0.7937,-0.794,-0.8129,-0.813,-0.8132,-0.8258,-0.826,-0.8261,-0.8322,-0.8322,-0.8322,-0.8322,-0.8455,-0.846,-0.8464,0,0,0,0,0,0,0,0,0,0,0,0,0,-0.8039,-0.7941,-0.8129,-0.8178,-0.8183,-0.8257,-0.826,-0.8262,-0.8322,-0.8322,-0.8322,-0.8322,-0.8454,-0.8459,-0.8465,-0.85,0,0,-0.8481,-0.8484,0,0,0,0,0,0,0,0,-0.8033,-0.8046,-0.8169,-0.8174,-0.8181,-0.8274,-0.8241,-0.8342,-0.8322,-0.827,-0.8322,-0.8322,-0.8396,-0.8406,-0.8431,-0.8507,-0.8513,-0.8482,-0.8485,-0.8488,-0.8489,0,0,0,0,0,0,0,-0.8026,-0.804,-0.818,-0.817,-0.8178,-0.8194,-0.8208,-0.8261,-0.8332,-0.8274,-0.8279,-0.8293,-0.8399,-0.8425,-0.8434,-0.8515,-0.8482,-0.8487,-0.849,-0.8492,-0.8627,-0.8627,0,0,0,0,0,0,-0.801,-0.8034,-0.8176,-0.8184,-0.8105,-0.8197,-0.8213,-0.8244,-0.8332,-0.8345,-0.8293,-0.8296,-0.8416,-0.8428,-0.8439,-0.8487,-0.8488,-0.8493,-0.8496,-0.8626,-0.8627,-0.8627,0,0,0,0,0,0,-0.8006,-0.8022,-0.8171,-0.811,-0.813,-0.8201,-0.8235,-0.8247,-0.8273,-0.8346,-0.8359,-0.8307,-0.8417,-0.8432,-0.8485,-0.8493,-0.8495,-0.85,-0.8626,-0.8626,-0.8627,-0.8583,0,0,0,0,0,0,-0.8,-0.802,-0.8034,-0.811,-0.8133,-0.8213,-0.8235,-0.8249,-0.8282,-0.8286,-0.8362,-0.8374,-0.8418,-0.8476,-0.849,-0.85,-0.8504,-0.8626,-0.8626,-0.8627,-0.8584,-0.8582,-0.858,0,0,0,0,0,-0.7993,-0.8017,-0.8035,-0.8052,-0.8152,-0.8213,-0.8227,-0.8275,-0.8282,-0.8297,-0.8344,-0.8372,-0.8489,-0.8481,-0.8497,-0.8509,-0.8625,-0.8626,-0.8627,-0.8585,-0.8582,-0.858,0,0,0,0,0,0,-0.7942,-0.8028,-0.8048,-0.8098,-0.8148,-0.8224,-0.8244,-0.8271,-0.8321,-0.8323,-0.8382,-0.8398,-0.8446,-0.8483,-0.8472,-0.8549,-0.856,-0.8564,-0.8523,-0.8521,-0.8519,-0.8509,-0.8509,0,0,0,0,0,-0.7936,-0.7978,-0.8051,-0.8088,-0.8112,-0.8173,-0.8202,-0.8235,-0.8289,-0.8311,-0.8362,-0.8414,-0.8463,-0.8494,-0.8543,-0.8589,-0.8607,-0.8606,-0.8603,-0.8601,-0.8604,-0.8632,-0.8632,-0.8629,-0.8629,-0.8629,0,0,-0.7925,-0.7977,-0.8,-0.8079,-0.8121,-0.8164,-0.8191,-0.8235,-0.8267,-0.8318,-0.8371,-0.841,-0.8472,-0.8522,-0.8547,-0.8554,-0.8609,-0.8602,-0.86,-0.8604,-0.8633,-0.8633,-0.8633,-0.863,-0.8629,-0.8629,0,0,-0.7926,-0.797,-0.8005,-0.8047,-0.8111,-0.8151,-0.8159,-0.8231,-0.8259,-0.8313,-0.8352,-0.8391,-0.8474,-0.8517,-0.8549,-0.8566,-0.8594,-0.8581,-0.857,-0.8597,-0.8597,-0.8597,-0.8604,-0.8605,-0.8583,-0.8583,-0.8583,0,-0.7905,-0.797,-0.802,-0.8062,-0.8095,-0.8142,-0.8178,-0.8217,-0.8293,-0.8316,-0.8323,-0.8428,-0.8473,-0.8533,-0.8537,-0.8562,-0.8574,-0.8573,-0.8593,-0.8594,-0.8595,-0.8602,-0.8604,-0.8581,-0.8581,-0.8581,-0.8582,0,-0.794,-0.7985,-0.8006,-0.8078,-0.8113,-0.8152,-0.8209,-0.8239,-0.8269,-0.8309,-0.8363,-0.8419,-0.848,-0.8496,-0.8526,-0.8561,-0.8564,-0.8581,-0.8594,-0.8592,-0.86,-0.8603,-0.8578,-0.8579,-0.8579,-0.858,0,0,-0.7914,-0.8012,-0.8019,-0.8052,-0.8126,-0.8161,-0.8202,-0.8261,-0.8286,-0.8337,-0.8374,-0.8442,-0.8458,-0.8495,-0.853,-0.8553,-0.8563,-0.8567,-0.857,-0.8565,-0.8606,-0.8593,-0.8595,-0.8581,-0.8582,-0.8583,-0.8601,0,-0.7926,-0.8001,-0.8047,-0.8104,-0.8146,-0.819,-0.8226,-0.8275,-0.8313,-0.8355,-0.8398,-0.8445,-0.8463,-0.8485,-0.851,-0.8556,-0.8572,-0.8556,-0.8617,-0.8618,-0.86,-0.8599,-0.8586,-0.86,-0.8604,-0.8604,-0.8605,0,-0.7951,-0.8,-0.806,-0.8128,-0.8148,-0.8179,-0.8236,-0.8275,-0.8332,-0.8358,-0.8399,-0.8434,-0.848,-0.8488,-0.8552,-0.854,-0.8567,-0.8594,-0.8596,-0.8604,-0.8612,-0.8608,-0.8606,-0.8608,-0.861,-0.8609,-0.8609,0,-0.7926,-0.8007,-0.8054,-0.8081,-0.8161,-0.8182,-0.8217,-0.8274,-0.8306,-0.8356,-0.8378,-0.8433,-0.8463,-0.8506,-0.8555,-0.8556,-0.8614,-0.8626,-0.8638,-0.8637,-0.8649,-0.8648,-0.8652,-0.8665,-0.8665,-0.8665,-0.8665,0,-0.7935,-0.7971,-0.8044,-0.8072,-0.8113,-0.8166,-0.8205,-0.8244,-0.8293,-0.8331,-0.8373,-0.8407,-0.847,-0.8512,-0.8551,-0.8598,-0.8611,-0.8635,-0.8645,-0.8631,-0.8628,-0.8651,-0.8651,-0.8666,-0.8666,-0.8665,-0.8665,0,-0.7915,-0.7965,-0.8019,-0.809,-0.8109,-0.8136,-0.8198,-0.8228,-0.8268,-0.8315,-0.8329,-0.8392,-0.8444,-0.8497,-0.8567,-0.8593,-0.864,-0.8653,-0.862,-0.8626,-0.8635,-0.8634,-0.8654,-0.866,-0.8668,-0.8668,-0.8668,0,-0.7918,-0.7946,-0.802,-0.8048,-0.8081,-0.8125,-0.8158,-0.8211,-0.8243,-0.8309,-0.8331,-0.8386,-0.8433,-0.8514,-0.8567,-0.8621,-0.8636,-0.864,-0.8645,-0.863,-0.8637,-0.8635,-0.8638,-0.8638,-0.8638,-0.8637,-0.8637,0,-0.7918,-0.7941,-0.7986,-0.804,-0.8078,-0.8123,-0.817,-0.819,-0.8252,-0.8287,-0.834,-0.8376,-0.8447,-0.8501,-0.8561,-0.8598,-0.8628,-0.8635,-0.8641,-0.8628,-0.8608,-0.8619,-0.8616,-0.8634,-0.8635,-0.8635,-0.8635,-0.8635,-0.791,-0.7937,-0.7993,-0.8042,-0.8082,-0.8125,-0.8156,-0.82,-0.8245,-0.8306,-0.8335,-0.8388,-0.8444,-0.8528,-0.8564,-0.8607,-0.8615,-0.8623,-0.8626,-0.8627,-0.8624,-0.86,-0.8618,-0.8618,-0.8618,-0.8619,-0.8619,0,-0.7912,-0.795,-0.7994,-0.8058,-0.8097,-0.812,-0.8173,-0.8204,-0.825,-0.8299,-0.8344,-0.8405,-0.8458,-0.8514,-0.857,-0.8594,-0.8609,-0.8607,-0.8606,-0.8614,-0.8613,-0.8603,-0.8594,-0.8594,-0.8594,-0.8594,-0.8594,-0.8594,-0.7918,-0.7965,-0.7994,-0.8062,-0.81,-0.8152,-0.818,-0.822,-0.8259,-0.8325,-0.8369,-0.8405,-0.8457,-0.8517,-0.8567,-0.8582,-0.8601,-0.8595,-0.8614,-0.8612,-0.8614,-0.8616,-0.8607,-0.8599,-0.8599,-0.8612,-0.8612,-0.8612]}]]